Regional Weather Roundup
Issued by NWS

Home | Current Version | Previous Version | Text Only | Print | Product List | Glossary Off
Versions: 1 2 3 4 5 6 7 8 9 10 11 12 13 14 15 16 17 18 19 20 21 22 23 24 25 26 27 28 29 30 31 32 33 34 35 36 37 38 39 40 41 42 43 44 45 46 47 48 49 50

000
ASUS45 KSLC 280210
RWRUT

UTAH REGIONAL WEATHER ROUNDUP
NATIONAL WEATHER SERVICE SALT LAKE CITY UT
800 PM MDT FRI MAR 27 2015

UTZ001>011-023>025-280300-

NORTHERN UTAH

CITY           SKY/WX    TMP DP  RH WIND       PRES   REMARKS
BRIGHAM CITY   CLEAR     64  35  33 E6        30.15F
HILL AFB       CLEAR     64  29  26 NE1       30.16F
LOGAN          CLEAR     61  35  37 CALM      30.15F
OGDEN          CLEAR     62  31  31 NE3       30.15F
PROVO AIRPORT  CLEAR     61  36  39 CALM      30.16F
SALT LAKE CITY CLEAR     62  36  37 N8        30.14F
VERNAL         PTCLDY    62  27  26 SW3       30.15S
WENDOVER       CLEAR     63  25  23 NW6       30.13F
HEBER CITY     CLEAR     55  28  35 SW10      30.19S
WEST JORDAN    CLEAR     61  37  41 NW6       30.17S

$$

UTZ012>022-026-027-280300-

SOUTHERN/CENTRAL UTAH

CITY           SKY/WX    TMP DP  RH WIND       PRES   REMARKS
BLANDING       CLEAR     60  22  23 NW10      30.26R
BRYCE CANYON   CLEAR     55  25  31 W9        30.30R
CEDAR CITY     CLEAR     62  23  22 S9        30.19S
DELTA          CLEAR     67  25  20 E3        30.16F
HANKSVILLE     CLEAR     70  21  16 SE5       30.13S
MILFORD        CLEAR     65  28  24 CALM      30.15F
MOAB/CYNLANDS  CLEAR     62  21  20 N6        30.11S
PRICE          CLEAR     65  23  20 NW9       30.18S
ST GEORGE      CLEAR     77  25  14 SW9       30.08S
KANAB          CLEAR     63  21  20 W6        30.20R

$$

REGIONAL REPORTS     COLORADO/ARIZONA

CITY           SKY/WX    TMP DP  RH WIND       PRES   REMARKS
CRAIG, CO      PTCLDY    52  32  46 SW13      30.17S
GRAND JUNCTION CLEAR     62  24  23 N7        30.13S
RIFLE          CLEAR     59  25  27 CALM      30.16S
MONTROSE       CLEAR     63  21  20 SW3       30.20S
CORTEZ         CLEAR     56  23  27 S6        30.20S
PAGE, AZ       CLEAR     70  24  17 CALM      30.11S
GRAND CANYON   CLEAR     52  21  29 CALM      30.28R
KINGMAN        CLEAR     68  25  19 SW9       30.12R
FLAGSTAFF      CLEAR     59  15  18 SW7       30.30S

$$

REGIONAL REPORTS    NEVADA/IDAHO/WYOMING

CITY           SKY/WX    TMP DP  RH WIND       PRES   REMARKS
LAS VEGAS, NV  CLEAR     83  21  10 E9        29.98S
ELY            CLEAR     59  19  21 S8        30.19S
ELKO           CLEAR     68  28  22 CALM      30.11F
POCATELLO, ID  PTCLDY    62  32  32 S12       30.10F
BURLEY         CLEAR     66  37  34 N3        30.06F
EVANSTON, WY   CLEAR     53  27  36 W14       30.25F
ROCK SPRINGS   PTCLDY    57  22  25 W15       30.20R
KEMMERER       CLEAR     50  28  43 W6        30.26S

$$


USA.gov is the U.S. government's official web portal to all federal, state and local government web resources and services.